User: anonymous
Location: Caltech
(34.1382°N, 118.1253°W)
Time: 19:35:18
(UTC-07:00)
Language:

Cosmos 1939 Rocket - Orbit

View from above orbital plane
View from above orbital plane
View from above satellite
View from above satellite

Ground track
Ground track

The orbit data is extracted from the following two-line orbital elements,

1 19046U 88032B   14209.11014714  .00000811  00000-0  70048-4 0  9359
2 19046 097.6498 262.9464 0033359 326.1344 033.7749 14.99609065414331
Epoch (UTC): 28 July 2014 02:38:36
Eccentricity: 0.0033359
inclination: 97.6498°
perigee height: 545 km
apogee height: 591 km
right ascension of ascending node: 262.9464°
argument of perigee: 326.1344°
revolutions per day: 14.99609065
mean anomaly at epoch: 33.7749°
orbit number at epoch: 41433

The dashed part of the orbit path shows where the satellite is in the earth's shadow,  

DLR